Location: Newark
(21.8258°S, 114.1586°E)
Time: 21:20:10
(UTC+00:00)

N. Korean satellite - Pass Details

Date: 17 December 2019
Orbit: 454 x 507 km, 97.2° (Epoch: 27 January)

Event Time Altitude Azimuth Distance (km) Brightness Sun altitude
Rises 21:09:56 0° 32° (NNE) 2,456 10.2 -6.2°
Reaches altitude 10° 21:12:07 10° 44° (NE) 1,593 9.4 -5.7°
Maximum altitude 21:15:05 28° 104° (ESE) 892 9.0 -5.1°
Drops below altitude 10° 21:18:07 10° 165° (SSE) 1,625 9.9 -4.5°
Sets 21:20:22 0° 176° (S) 2,515 10.7 -4.0°
